Weather History for Worland, WY

Change the Weather History Date:

Sunday, September 8, 2013

  Actual Average Record
Temperature  
Mean Temperature 66 °F 62 °F  
Max Temperature 77 °F 79 °F 97 °F (1979)
Min Temperature 55 °F 46 °F 30 °F (1962)
Degree Days  
Heating Degree Days 0 4  
Month to date heating degree days 0 26  
Since 1 July heating degree days 0 62  
Cooling Degree Days 1 2  
Month to date cooling degree days 74 18  
Year to date cooling degree days 835 524  
Growing Degree Days 16 (Base 50)    
Moisture  
Dew Point 57 °F    
Average Humidity 72    
Maximum Humidity 93    
Minimum Humidity 50    
Precipitation  
Precipitation 0.08 in 0.02 in 0.50 in (1973)
Month to date precipitation 0.20 0.17  
Year to date precipitation 3.41 5.62  
Sea Level Pressure  
Sea Level Pressure 29.88 in    
Wind  
Wind Speed 5 mph (SSE)    
Max Wind Speed 22 mph    
Max Gust Speed 30 mph    
Visibility 10 miles    
Events Rain    
T = Trace of Precipitation, MM = Missing Value Source: NWS Daily Summary

Daily Weather History Graph

Daily Weather History Graph

Search for Another Location

Airport:

Trip Planner

Search our weather history database for the weather conditions in past years. The results will help you decide how hot, cold, wet, or windy it might be!

Date:

Astronomy

Sep. 08, 2013 Rise Set
Actual Time 6:43 AM MDT 7:34 PM MDT
Civil Twilight 6:14 AM MDT 8:03 PM MDT
Nautical Twilight 5:39 AM MDT 8:38 PM MDT
Astronomical Twilight 5:02 AM MDT 9:14 PM MDT
Moon 10:12 AM MDT (9/8) 9:02 PM MDT (9/8)
Length of Visible Light 13h 49m
Length of Day
12h 51m
Waxing Crescent, 11% of the Moon is Illuminated
Sep 8
Waxing Crescent
Sep 12
First Quarter
Sep 19
Full
Sep 26
Last Quarter
Oct 4
New

Hourly Weather History & Observations

Time (MDT) Temp. Dew Point Humidity Pressure Visibility Wind Dir Wind Speed Gust Speed Precip Events Conditions
12:53 AM 66.9 °F 59.0 °F 76% 29.92 in 10.0 mi SE 9.2 mph - N/A   Partly Cloudy
2:53 AM 64.0 °F 59.0 °F 84% 29.88 in 10.0 mi NNW 5.8 mph - N/A   Clear
3:53 AM 61.0 °F 57.9 °F 90% 29.88 in 10.0 mi Calm Calm - N/A   Clear
4:53 AM 62.1 °F 57.9 °F 86% 29.89 in 10.0 mi North 5.8 mph - N/A   Clear
5:53 AM 60.1 °F 57.0 °F 90% 29.92 in 10.0 mi Calm Calm - N/A   Clear
6:53 AM 57.9 °F 55.0 °F 90% 29.93 in 10.0 mi ESE 3.5 mph - N/A   Clear
7:53 AM 62.1 °F 57.0 °F 84% 29.94 in 10.0 mi SE 3.5 mph - N/A   Clear
8:53 AM 64.0 °F 55.0 °F 73% 29.94 in 10.0 mi Calm Calm - N/A   Clear
9:53 AM 66.9 °F 55.9 °F 68% 29.94 in 10.0 mi Calm Calm - N/A   Clear
10:53 AM 70.0 °F 57.9 °F 65% 29.91 in 10.0 mi WSW 3.5 mph - N/A   Clear
11:53 AM 75.0 °F 57.9 °F 55% 29.88 in 10.0 mi Calm Calm - N/A   Clear
12:53 PM 75.0 °F 57.0 °F 53% 29.86 in 10.0 mi WNW 3.5 mph - N/A   Clear
1:53 PM 75.9 °F 55.9 °F 50% 29.84 in 10.0 mi West 8.1 mph - N/A   Scattered Clouds
2:53 PM 75.0 °F 57.0 °F 53% 29.85 in 10.0 mi WSW 5.8 mph - N/A   Overcast
3:53 PM 66.9 °F 57.0 °F 70% 29.90 in 10.0 mi WNW 16.1 mph - 0.01 in   Overcast
4:53 PM 64.9 °F 57.0 °F 75% 29.88 in 10.0 mi NNE 6.9 mph - 0.00 in Rain Light Rain
5:53 PM 64.0 °F 57.0 °F 78% 29.90 in 4.0 mi Calm Calm - 0.03 in Rain Rain
6:53 PM 63.0 °F 57.9 °F 84% 29.83 in 10.0 mi ESE 12.7 mph - 0.04 in   Scattered Clouds
7:53 PM 61.0 °F 55.9 °F 83% 29.83 in 10.0 mi SSE 9.2 mph - N/A   Clear
8:53 PM 62.1 °F 55.9 °F 80% 29.83 in 10.0 mi SSE 13.8 mph - N/A   Clear
9:53 PM 62.1 °F 55.9 °F 80% 29.83 in 10.0 mi SSE 9.2 mph - N/A   Clear
10:53 PM 59.0 °F 55.9 °F 90% 29.85 in 10.0 mi NNE 3.5 mph - N/A   Partly Cloudy
11:53 PM 57.0 °F 55.0 °F 93% 29.82 in 10.0 mi Calm Calm - N/A   Clear